Weather History for KPPQ - February, 2013

Change the Weather History Date:

Sunday, February 17, 2013

  Actual Average (KUIN) Record (KUIN)
Temperature  
Mean Temperature 31 °F 31 °F  
Max Temperature 43 °F 40 °F 70 °F (2011)
Min Temperature 19 °F 23 °F -18 °F (1903)
Degree Days  
Heating Degree Days 34 34  
Month to date heating degree days 609  
Since 1 July heating degree days 3995  
Cooling Degree Days 0 0  
Month to date cooling degree days 0  
Year to date cooling degree days 0  
Moisture  
Dew Point 22 °F    
Average Humidity 69    
Maximum Humidity 87    
Minimum Humidity 42    
Precipitation  
Precipitation 0.00 in 0.06 in 1.28 in (2008)
Month to date precipitation 1.04  
Year to date precipitation 2.56  
Sea Level Pressure  
Sea Level Pressure 30.07 in    
Wind  
Wind Speed 7 mph (ESE)    
Max Wind Speed 17 mph    
Max Gust Speed 23 mph    
Visibility 10 miles    
Events      
T = Trace of Precipitation, MM = Missing Value Source: NWS Daily Summary

Daily Weather History Graph

Daily Weather History Graph

Search for Another Location

Airport or City:

Trip Planner

Search our weather history database for the weather conditions in past years. The results will help you decide how hot, cold, wet, or windy it might be!

Date:

Astronomy

Feb. 17, 2013 Rise Set
Actual Time 6:52 AM CST 5:42 PM CST
Civil Twilight 6:25 AM CST 6:09 PM CST
Nautical Twilight 5:53 AM CST 6:41 PM CST
Astronomical Twilight 5:22 AM CST 7:12 PM CST
Moon 10:47 AM CST (2/17) 12:36 AM CST (2/17)
Length of Visible Light 11h 44m
Length of Day
10h 49m
Waxing Crescent, 49% of the Moon is Illuminated
Feb 17
Waxing Crescent
Feb 17
First Quarter
Feb 25
Full
Mar 4
Last Quarter
Mar 11
New

Hourly Weather History & Observations

Time (CST) Temp. Windchill Dew Point Humidity Pressure Visibility Wind Dir Wind Speed Gust Speed Precip Events Conditions
12:15 AM 22.8 °F - 18.7 °F 84% 30.16 in 10.0 mi Calm Calm - N/A   Clear
12:35 AM 21.4 °F - 17.1 °F 83% 30.16 in 10.0 mi Calm Calm - N/A   Clear
12:55 AM 20.3 °F 11.5 °F 17.1 °F 87% 30.17 in 10.0 mi NNE 6.9 mph - N/A   Clear
1:15 AM 21.2 °F 14.9 °F 17.2 °F 85% 30.18 in 10.0 mi NE 4.6 mph - N/A   Clear
1:35 AM 21.0 °F 13.4 °F 16.7 °F 83% 30.17 in 10.0 mi ENE 5.8 mph - N/A   Clear
1:55 AM 21.2 °F 13.6 °F 16.9 °F 83% 30.17 in 10.0 mi ENE 5.8 mph - N/A   Clear
2:15 AM 21.4 °F 13.8 °F 16.9 °F 83% 30.17 in 10.0 mi ENE 5.8 mph - N/A   Clear
2:35 AM 21.7 °F 14.3 °F 16.5 °F 80% 30.17 in 10.0 mi ENE 5.8 mph - N/A   Clear
2:55 AM 21.2 °F 16.4 °F 16.2 °F 81% 30.16 in 10.0 mi East 3.5 mph - N/A   Clear
3:15 AM 21.0 °F - 16.0 °F 81% 30.16 in 10.0 mi Calm Calm - N/A   Clear
3:35 AM 20.5 °F - 16.5 °F 85% 30.16 in 10.0 mi Calm Calm - N/A   Clear
3:55 AM 20.3 °F 15.4 °F 16.7 °F 86% 30.16 in 10.0 mi ENE 3.5 mph - N/A   Clear
4:15 AM 19.6 °F - 16.3 °F 87% 30.16 in 10.0 mi Calm Calm - N/A   Clear
4:35 AM 19.4 °F 14.3 °F 16.2 °F 87% 30.16 in 10.0 mi ENE 3.5 mph - N/A   Clear
4:55 AM 19.4 °F 14.3 °F 15.4 °F 85% 30.17 in 10.0 mi East 3.5 mph - N/A   Clear
5:15 AM 20.1 °F 13.6 °F 16.3 °F 85% 30.18 in 10.0 mi East 4.6 mph - N/A   Clear
5:35 AM 19.6 °F 14.5 °F 15.8 °F 85% 30.17 in 10.0 mi East 3.5 mph - N/A   Clear
5:55 AM 21.2 °F 14.9 °F 15.8 °F 80% 30.18 in 10.0 mi East 4.6 mph - N/A   Clear
6:15 AM 20.3 °F 15.4 °F 16.0 °F 83% 30.18 in 10.0 mi East 3.5 mph - N/A   Scattered Clouds
6:35 AM 20.3 °F 15.4 °F 16.3 °F 85% 30.18 in 10.0 mi ESE 3.5 mph - N/A   Scattered Clouds
6:55 AM 20.1 °F 15.2 °F 16.2 °F 85% 30.18 in 10.0 mi East 3.5 mph - N/A   Scattered Clouds
7:15 AM 20.7 °F 14.2 °F 16.5 °F 84% 30.18 in 10.0 mi East 4.6 mph - N/A   Scattered Clouds
7:35 AM 21.9 °F 14.5 °F 17.6 °F 83% 30.16 in 10.0 mi East 5.8 mph - N/A   Mostly Cloudy
7:55 AM 22.6 °F 15.3 °F 18.0 °F 82% 30.17 in 10.0 mi East 5.8 mph - N/A   Overcast
8:15 AM 23.7 °F 15.6 °F 19.2 °F 83% 30.17 in 10.0 mi SE 6.9 mph - N/A   Overcast
8:35 AM 25.5 °F 16.9 °F 20.8 °F 82% 30.17 in 10.0 mi ESE 8.1 mph - N/A   Overcast
8:55 AM 26.1 °F 17.6 °F 20.3 °F 79% 30.17 in 10.0 mi ESE 8.1 mph - N/A   Overcast
9:15 AM 27.1 °F 17.5 °F 21.2 °F 78% 30.16 in 10.0 mi ESE 10.4 mph - N/A   Overcast
9:35 AM 28.4 °F 19.1 °F 22.1 °F 77% 30.16 in 10.0 mi SE 10.4 mph - N/A   Overcast
9:55 AM 30.4 °F 21.0 °F 22.5 °F 72% 30.16 in 10.0 mi SE 11.5 mph - N/A   Mostly Cloudy
10:15 AM 32.0 °F 24.2 °F 22.8 °F 69% 30.16 in 10.0 mi SE 9.2 mph - N/A   Scattered Clouds
10:35 AM 33.4 °F 25.4 °F 22.6 °F 65% 30.16 in 10.0 mi SE 10.4 mph - N/A   Clear
10:55 AM 34.7 °F 26.4 °F 21.6 °F 59% 30.15 in 10.0 mi SE 11.5 mph - N/A   Scattered Clouds
11:15 AM 36.0 °F 28.0 °F 22.3 °F 58% 30.15 in 10.0 mi SE 11.5 mph 16.1 mph N/A   Clear
11:35 AM 37.8 °F 30.2 °F 22.8 °F 55% 30.14 in 10.0 mi ESE 11.5 mph - N/A   Clear
11:55 AM 37.9 °F 30.0 °F 23.0 °F 55% 30.13 in 10.0 mi SE 12.7 mph - N/A   Scattered Clouds
12:15 PM 39.4 °F 31.4 °F 22.3 °F 50% 30.11 in 10.0 mi SE 13.8 mph - N/A   Scattered Clouds
12:35 PM 40.5 °F 32.8 °F 22.5 °F 49% 30.09 in 10.0 mi SE 13.8 mph 19.6 mph N/A   Clear
12:55 PM 41.2 °F 33.7 °F 23.2 °F 49% 30.08 in 10.0 mi SE 13.8 mph 20.7 mph N/A   Clear
1:15 PM 42.1 °F 35.7 °F 23.0 °F 47% 30.07 in 10.0 mi ESE 11.5 mph - N/A   Clear
1:35 PM 42.3 °F 35.5 °F 22.5 °F 45% 30.05 in 10.0 mi ESE 12.7 mph 19.6 mph N/A   Clear
1:55 PM 42.8 °F 35.4 °F 23.0 °F 46% 30.05 in 10.0 mi SE 15.0 mph 18.4 mph N/A   Clear
2:15 PM 43.0 °F 35.4 °F 22.3 °F 44% 30.03 in 10.0 mi SE 16.1 mph - N/A   Clear
2:35 PM 43.2 °F 35.9 °F 21.9 °F 43% 30.03 in 10.0 mi SE 15.0 mph 20.7 mph N/A   Clear
2:55 PM 43.9 °F 36.5 °F 22.8 °F 43% 30.02 in 10.0 mi ESE 16.1 mph - N/A   Clear
3:15 PM 43.9 °F 37.2 °F 22.5 °F 43% 30.01 in 10.0 mi SE 13.8 mph - N/A   Clear
3:35 PM 43.7 °F 36.0 °F 22.1 °F 42% 30.00 in 10.0 mi SSE 17.3 mph - N/A   Clear
3:55 PM 43.7 °F 36.3 °F 22.1 °F 42% 30.00 in 10.0 mi SE 16.1 mph 23.0 mph N/A   Clear
4:15 PM 43.3 °F 35.5 °F 22.3 °F 43% 29.99 in 10.0 mi SE 17.3 mph 20.7 mph N/A   Clear
4:35 PM 42.4 °F 35.0 °F 22.6 °F 46% 29.97 in 10.0 mi SE 15.0 mph 19.6 mph N/A   Clear
4:55 PM 42.1 °F 35.2 °F 23.4 °F 48% 29.97 in 10.0 mi SE 12.7 mph 18.4 mph N/A   Clear
5:15 PM 41.0 °F 33.9 °F 23.4 °F 50% 29.97 in 10.0 mi SE 12.7 mph - N/A   Clear
5:35 PM 40.1 °F 33.2 °F 23.0 °F 51% 29.96 in 10.0 mi SE 11.5 mph 17.3 mph N/A   Clear
5:55 PM 38.7 °F 31.4 °F 24.1 °F 56% 29.96 in 10.0 mi ESE 11.5 mph - N/A   Clear
6:15 PM 37.9 °F 30.5 °F 24.4 °F 58% 29.95 in 10.0 mi ESE 11.5 mph - N/A   Clear
6:35 PM 37.4 °F 30.8 °F 25.0 °F 61% 29.96 in 10.0 mi ESE 9.2 mph - N/A   Clear
6:55 PM 37.0 °F 29.3 °F 25.0 °F 62% 29.96 in 10.0 mi ESE 11.5 mph - N/A   Clear
7:15 PM 37.0 °F 29.3 °F 25.0 °F 62% 29.96 in 10.0 mi ESE 11.5 mph 16.1 mph N/A   Clear
7:35 PM 37.0 °F 29.3 °F 25.3 °F 63% 29.95 in 10.0 mi ESE 11.5 mph - N/A   Clear
7:55 PM 36.5 °F 28.7 °F 25.3 °F 64% 29.94 in 10.0 mi ESE 11.5 mph 17.3 mph N/A   Clear
8:15 PM 36.5 °F 28.7 °F 25.7 °F 65% 29.93 in 10.0 mi ESE 11.5 mph - N/A   Clear
8:35 PM 36.1 °F 28.2 °F 26.2 °F 67% 29.93 in 10.0 mi ESE 11.5 mph - N/A   Clear
8:55 PM 36.5 °F 28.7 °F 26.6 °F 67% 29.92 in 10.0 mi SE 11.5 mph - N/A   Clear
9:15 PM 36.9 °F 28.7 °F 27.5 °F 69% 29.92 in 10.0 mi SE 12.7 mph - N/A   Clear
9:35 PM 37.0 °F 28.9 °F 28.4 °F 71% 29.91 in 10.0 mi SE 12.7 mph - N/A   Clear
9:55 PM 36.9 °F 29.1 °F 28.9 °F 73% 29.91 in 10.0 mi SE 11.5 mph - N/A   Clear
10:15 PM 36.7 °F 29.4 °F 29.7 °F 76% 29.90 in 10.0 mi SE 10.4 mph - N/A   Clear
10:35 PM 36.9 °F 29.1 °F 30.2 °F 77% 29.89 in 10.0 mi SE 11.5 mph - N/A   Clear
10:55 PM 36.9 °F 28.7 °F 30.2 °F 77% 29.88 in 10.0 mi SE 12.7 mph - N/A   Clear
11:15 PM 36.9 °F 29.1 °F 30.7 °F 79% 29.88 in 10.0 mi SE 11.5 mph - N/A   Clear
11:35 PM 36.7 °F 28.4 °F 30.9 °F 80% 29.87 in 10.0 mi SE 12.7 mph - N/A   Clear
11:55 PM 36.5 °F 28.7 °F 31.1 °F 81% 29.86 in 10.0 mi SE 11.5 mph - N/A   Clear